Madison, SD

4:14 PM CST on November 16, 2019 (GMT -0600)
Madison Municipal

Weather History for KMDS - September, 2019

Change the Weather History Date:

Friday, September 6, 2019

  Actual Average Record
Temperature  
Mean Temperature 64 °F -  
Max Temperature 75 °F 79 °F 89 °F (2013)
Min Temperature 53 °F 53 °F 39 °F (2017)
Degree Days  
Heating Degree Days 1    
Growing Degree Days 14 (Base 50)    
Moisture  
Dew Point 59 °F    
Average Humidity 87    
Maximum Humidity 100    
Minimum Humidity 50    
Precipitation  
Precipitation 0.00 in - - ()
Sea Level Pressure  
Sea Level Pressure 30.17 in    
Wind  
Wind Speed 6 mph ()    
Max Wind Speed 13 mph    
Max Gust Speed 17 mph    
Visibility 10.0 miles    
Events Rain    
Averages and records for this station are not official NWS values.
T = Trace of Precipitation, MM = Missing Value Source: Averaged Metar Reports

Daily Weather History Graph

Daily Weather History Graph

Search for Another Location

Airport or City:

Astronomy

Sep. 06, 2019 Rise Set
Actual Time 6:57 AM CDT 7:55 PM CDT
Civil Twilight 6:27 AM CDT 8:24 PM CDT
Nautical Twilight 5:52 AM CDT 9:00 PM CDT
Astronomical Twilight 5:15 AM CDT 9:36 PM CDT
Moon 3:22 PM CDT (9/6) No Moon Set
Length of Visible Light 13h 57m
Length of Day
12h 58m
First Quarter, 56% of the Moon is Illuminated
Sep 6
First Quarter
Sep 13
Full
Sep 21
Last Quarter
Sep 28
New
Oct 5
First Quarter

Hourly Weather History & Observations

Time (CDT) Temp. Dew Point Humidity Pressure Visibility Wind Dir Wind Speed Gust Speed Precip Events Conditions
12:15 AM 60.8 °F 60.8 °F 100% 30.11 in 10.0 mi NNE 8.1 mph - N/A   Clear
12:20 AM 60.8 °F 60.8 °F 100% 30.11 in 10.0 mi North 9.2 mph - N/A   Clear
12:35 AM 59.0 °F 59.0 °F 100% 30.11 in 10.0 mi NNE 6.9 mph - N/A   Clear
12:40 AM 59.0 °F 59.0 °F 100% 30.11 in 10.0 mi North 5.8 mph - N/A   Clear
12:55 AM 59.0 °F 59.0 °F 100% 30.12 in 10.0 mi North 4.6 mph - N/A   Clear
1:15 AM 59.0 °F 59.0 °F 100% 30.12 in 10.0 mi North 5.8 mph - N/A   Clear
1:35 AM 57.2 °F 57.2 °F 100% 30.13 in 10.0 mi North 8.1 mph - N/A   Clear
1:40 AM 59.0 °F 59.0 °F 100% 30.13 in 10.0 mi North 9.2 mph - N/A   Clear
1:55 AM 59.0 °F 59.0 °F 100% 30.13 in 10.0 mi North 9.2 mph - N/A   Clear
2:15 AM 57.2 °F 57.2 °F 100% 30.13 in 10.0 mi North 8.1 mph - N/A   Clear
2:35 AM 57.2 °F 57.2 °F 100% 30.14 in 10.0 mi North 5.8 mph - N/A   Clear
2:40 AM 57.2 °F 57.2 °F 100% 30.14 in 10.0 mi North 6.9 mph - N/A   Clear
2:55 AM 55.4 °F 55.4 °F 100% 30.14 in 10.0 mi North 6.9 mph - N/A   Clear
3:00 AM 55.4 °F 55.4 °F 100% 30.14 in 10.0 mi North 6.9 mph - N/A   Clear
3:15 AM 55.4 °F 55.4 °F 100% 30.14 in 10.0 mi NNW 4.6 mph - N/A   Clear
3:20 AM 55.4 °F 55.4 °F 100% 30.15 in 10.0 mi NW 4.6 mph - N/A   Clear
3:35 AM 57.2 °F 57.2 °F 100% 30.15 in 10.0 mi NW 5.8 mph - N/A   Clear
3:40 AM 57.2 °F 57.2 °F 100% 30.15 in 10.0 mi NW 5.8 mph - N/A   Clear
3:55 AM 55.4 °F 55.4 °F 100% 30.15 in 10.0 mi North 6.9 mph - N/A   Clear
4:00 AM 55.4 °F 55.4 °F 100% 30.15 in 10.0 mi North 6.9 mph - N/A   Clear
4:15 AM 55.4 °F 55.4 °F 100% 30.16 in 10.0 mi North 5.8 mph - N/A   Clear
4:20 AM 55.4 °F 55.4 °F 100% 30.15 in 10.0 mi North 8.1 mph - N/A   Clear
4:35 AM 53.6 °F 53.6 °F 100% 30.15 in 10.0 mi North 10.4 mph - N/A   Clear
4:40 AM 53.6 °F 53.6 °F 100% 30.15 in 10.0 mi North 10.4 mph - N/A   Clear
4:55 AM 53.6 °F 53.6 °F 100% 30.15 in 10.0 mi North 5.8 mph - N/A   Clear
5:15 AM 53.6 °F 53.6 °F 100% 30.15 in 10.0 mi North 6.9 mph - N/A   Clear
5:20 AM 53.6 °F 53.6 °F 100% 30.15 in 10.0 mi North 6.9 mph - N/A   Clear
5:35 AM 53.6 °F 53.6 °F 100% 30.15 in 10.0 mi North 5.8 mph - N/A   Clear
5:55 AM 53.6 °F 53.6 °F 100% 30.16 in 10.0 mi North 6.9 mph - N/A   Clear
6:00 AM 53.6 °F 53.6 °F 100% 30.16 in 10.0 mi North 5.8 mph - N/A   Clear
6:15 AM 53.6 °F 53.6 °F 100% 30.16 in 10.0 mi North 3.5 mph - N/A   Clear
6:20 AM 53.6 °F 53.6 °F 100% 30.16 in 10.0 mi North 3.5 mph - N/A   Clear
6:35 AM 53.6 °F 53.6 °F 100% 30.17 in 10.0 mi North 4.6 mph - N/A   Clear
6:40 AM 53.6 °F 53.6 °F 100% 30.17 in 10.0 mi NNW 5.8 mph - N/A   Clear
6:55 AM 53.6 °F 53.6 °F 100% 30.18 in 10.0 mi NNW 6.9 mph - N/A   Clear
7:15 AM 53.6 °F 53.6 °F 100% 30.19 in 10.0 mi North 5.8 mph - N/A   Clear
7:20 AM 53.6 °F 53.6 °F 100% 30.19 in 10.0 mi North 5.8 mph - N/A   Clear
7:35 AM 53.6 °F 53.6 °F 100% 30.19 in 10.0 mi North 4.6 mph - N/A   Clear
7:40 AM 53.6 °F 53.6 °F 100% 30.19 in 10.0 mi North 4.6 mph - N/A   Clear
7:55 AM 55.4 °F 55.4 °F 100% 30.19 in 10.0 mi North 5.8 mph - N/A   Clear
8:15 AM 57.2 °F 57.2 °F 100% 30.19 in 10.0 mi North 6.9 mph - N/A   Clear
8:35 AM 59.0 °F 59.0 °F 100% 30.19 in 10.0 mi NNE 6.9 mph - N/A   Clear
8:40 AM 59.0 °F 59.0 °F 100% 30.20 in 10.0 mi NNE 6.9 mph - N/A   Clear
8:55 AM 59.0 °F 59.0 °F 100% 30.20 in 10.0 mi NNE 12.7 mph - N/A   Clear
9:00 AM 60.8 °F 60.8 °F 100% 30.20 in 10.0 mi NNE 10.4 mph - N/A   Clear
9:15 AM 62.6 °F 62.6 °F 100% 30.21 in 10.0 mi NNE 10.4 mph - N/A   Clear
9:35 AM 62.6 °F 62.6 °F 100% 30.21 in 10.0 mi NNE 10.4 mph - N/A   Clear
9:40 AM 64.4 °F 64.4 °F 100% 30.21 in 10.0 mi NNE 6.9 mph - N/A   Clear
9:55 AM 64.4 °F 64.4 °F 100% 30.21 in 10.0 mi NNE 8.1 mph - N/A   Clear
10:15 AM 66.2 °F 60.8 °F 83% 30.22 in 10.0 mi North 6.9 mph - N/A   Clear
10:55 AM 68.0 °F 59.0 °F 73% 30.22 in 10.0 mi NNE 9.2 mph - N/A   Clear
11:00 AM 68.0 °F 59.0 °F 73% 30.22 in 10.0 mi NNE 6.9 mph - N/A   Clear
11:15 AM 68.0 °F 59.0 °F 73% 30.22 in 10.0 mi NNE 6.9 mph - N/A   Clear
11:20 AM 68.0 °F 60.8 °F 78% 30.22 in 10.0 mi NNE 8.1 mph - N/A   Clear
11:35 AM 69.8 °F 60.8 °F 73% 30.22 in 10.0 mi North 6.9 mph - N/A   Clear
11:55 AM 69.8 °F 59.0 °F 68% 30.21 in 10.0 mi North 6.9 mph - N/A   Clear
12:15 PM 71.6 °F 60.8 °F 69% 30.21 in 10.0 mi NNE 5.8 mph - N/A   Clear
12:20 PM 71.6 °F 60.8 °F 69% 30.21 in 10.0 mi NE 8.1 mph 17.3 mph N/A   Clear
12:35 PM 71.6 °F 60.8 °F 69% 30.21 in 10.0 mi NNE 8.1 mph - N/A   Clear
12:55 PM 71.6 °F 59.0 °F 64% 30.20 in 10.0 mi ENE 4.6 mph - N/A   Clear
1:20 PM 73.4 °F 60.8 °F 65% 30.20 in 10.0 mi Calm Calm - N/A   Clear
1:35 PM 73.4 °F 59.0 °F 61% 30.20 in 10.0 mi North 4.6 mph - N/A   Clear
1:40 PM 73.4 °F 59.0 °F 61% 30.20 in 10.0 mi North 8.1 mph - N/A   Clear
1:55 PM 73.4 °F 59.0 °F 61% 30.20 in 10.0 mi North 6.9 mph - N/A   Clear
2:00 PM 73.4 °F 57.2 °F 57% 30.19 in 10.0 mi North 8.1 mph - N/A   Clear
2:15 PM 73.4 °F 59.0 °F 61% 30.19 in 10.0 mi Calm Calm - N/A   Clear
2:20 PM 73.4 °F 57.2 °F 57% 30.19 in 10.0 mi Calm Calm - N/A   Clear
2:35 PM 75.2 °F 59.0 °F 57% 30.19 in 10.0 mi North 5.8 mph - N/A   Clear
2:55 PM 75.2 °F 57.2 °F 53% 30.18 in 10.0 mi NW 5.8 mph - N/A   Clear
3:15 PM 75.2 °F 57.2 °F 53% 30.18 in 10.0 mi NE 4.6 mph - N/A   Clear
3:35 PM 75.2 °F 55.4 °F 50% 30.17 in 10.0 mi Calm Calm - N/A   Clear
3:55 PM 75.2 °F 57.2 °F 53% 30.17 in 10.0 mi North 5.8 mph - N/A   Clear
4:00 PM 75.2 °F 59.0 °F 57% 30.17 in 10.0 mi NNW 5.8 mph - N/A   Clear
4:15 PM 75.2 °F 57.2 °F 53% 30.16 in 10.0 mi Calm Calm - N/A   Clear
4:35 PM 75.2 °F 59.0 °F 57% 30.16 in 10.0 mi North 3.5 mph - N/A   Clear
4:55 PM 75.2 °F 59.0 °F 57% 30.16 in 10.0 mi NNE 3.5 mph - N/A   Scattered Clouds
5:00 PM 75.2 °F 57.2 °F 53% 30.16 in 10.0 mi West 4.6 mph - N/A   Partly Cloudy
5:15 PM 75.2 °F 59.0 °F 57% 30.16 in 10.0 mi West 3.5 mph - N/A   Partly Cloudy
5:35 PM 73.4 °F 60.8 °F 65% 30.16 in 10.0 mi NNW 4.6 mph - N/A   Clear
5:55 PM 71.6 °F 64.4 °F 78% 30.15 in 10.0 mi NNE 4.6 mph - N/A   Clear
6:15 PM 73.4 °F 62.6 °F 69% 30.15 in 10.0 mi NNW 4.6 mph - N/A   Scattered Clouds
6:20 PM 73.4 °F 64.4 °F 73% 30.15 in 10.0 mi NW 5.8 mph - N/A   Scattered Clouds
6:35 PM 73.4 °F 62.6 °F 69% 30.15 in 10.0 mi NW 5.8 mph - N/A   Partly Cloudy
6:40 PM 73.4 °F 62.6 °F 69% 30.15 in 10.0 mi NW 4.6 mph - N/A   Partly Cloudy
6:55 PM 71.6 °F 62.6 °F 73% 30.14 in 10.0 mi NNW 4.6 mph - N/A   Clear
7:15 PM 71.6 °F 64.4 °F 78% 30.14 in 10.0 mi NW 4.6 mph - N/A   Clear
7:35 PM 69.8 °F 64.4 °F 83% 30.15 in 10.0 mi NW 3.5 mph - N/A   Clear
7:55 PM 68.0 °F 64.4 °F 88% 30.14 in 10.0 mi Calm Calm - N/A   Clear
8:00 PM 68.0 °F 64.4 °F 88% 30.14 in 10.0 mi Calm Calm - N/A   Clear
8:15 PM 68.0 °F 64.4 °F 88% 30.14 in 10.0 mi Calm Calm - N/A   Clear
8:35 PM 66.2 °F 64.4 °F 94% 30.14 in 10.0 mi Calm Calm - N/A   Clear
8:40 PM 66.2 °F 64.4 °F 94% 30.14 in 10.0 mi Calm Calm - N/A   Clear
8:55 PM 66.2 °F 66.2 °F 100% 30.14 in 10.0 mi Calm Calm - N/A   Clear
9:15 PM 64.4 °F 64.4 °F 100% 30.14 in 10.0 mi Calm Calm - N/A   Clear
9:35 PM 66.2 °F 64.4 °F 94% 30.14 in 10.0 mi Calm Calm - N/A   Clear
9:55 PM 64.4 °F 64.4 °F 100% 30.15 in 10.0 mi Calm Calm - N/A   Clear
10:15 PM 64.4 °F 64.4 °F 100% 30.15 in 10.0 mi Calm Calm - N/A   Clear
10:35 PM 64.4 °F 64.4 °F 100% 30.15 in 10.0 mi Calm Calm - N/A   Clear
10:40 PM 64.4 °F 64.4 °F 100% 30.15 in 10.0 mi Calm Calm - N/A   Clear
10:55 PM 64.4 °F 64.4 °F 100% 30.15 in 10.0 mi WNW 3.5 mph - N/A   Scattered Clouds
11:00 PM 64.4 °F 64.4 °F 100% 30.15 in 10.0 mi Calm Calm - N/A Rain Light Rain
11:15 PM 64.4 °F 64.4 °F 100% 30.15 in 10.0 mi SW 3.5 mph - N/A Rain Light Rain
11:20 PM 64.4 °F 64.4 °F 100% 30.15 in 10.0 mi Calm Calm - N/A Rain Light Rain
11:35 PM 64.4 °F 64.4 °F 100% 30.15 in 10.0 mi Calm Calm - N/A Rain Light Rain
11:40 PM 64.4 °F 64.4 °F 100% 30.15 in 10.0 mi Calm Calm - N/A Rain Light Rain
11:55 PM 64.4 °F 64.4 °F 100% 30.15 in 10.0 mi West 4.6 mph - N/A Rain Light Rain